Location: Beadle
(51.4667°N, 109.0000°W)
Time: 08:45:15
(UTC+00:00)

deb Explorer IX - Pass Details

Date: 03 June 2022
Orbit: 535 x 1068 km, 38.8° (Epoch: 04 July)

Event Time Altitude Azimuth Distance (km) Brightness Sun altitude
Rises 16:38:37 0° 238° (WSW) 3,832 ? 48.2°
Reaches altitude 10° 16:41:45 10° 227° (SW) 2,894 ? 48.7°
Maximum altitude 16:47:32 27° 172° (S) 1,894 ? 49.4°
Drops below altitude 10° 16:53:10 10° 118° (ESE) 2,804 ? 50.2°
Sets 16:56:09 0° 107° (ESE) 3,693 ? 50.6°
